Location: The Jewett Observatory
(46.7288°N, 117.1525°W)
Time: 15:07:11
(UTC-07:00)

Cosmos 1633 - Visible Passes

Search period start: 29 August 2014 00:00
Search period end: 08 September 2014 00:00
Orbit: 496 x 521 km, 82.5° (Epoch: 29 August)

Date Brightness Start Highest point End Pass type
(mag) Time Alt. Az. Time Alt. Az. Time Alt. Az.
29 Aug 4.6 20:31:37 10° SW 20:35:08 35° WNW 20:38:40 10° N visible
30 Aug 4.0 20:14:06 10° SSW 20:17:47 44° WNW 20:21:27 10° N visible
31 Aug 3.5 19:56:39 10° SSW 20:00:25 58° W 20:04:12 10° N visible
02 Sep 5.8 05:31:11 10° NNE 05:34:04 21° ENE 05:36:56 10° ESE visible
03 Sep 6.1 05:14:10 10° NNE 05:16:38 17° ENE 05:19:05 10° ESE visible
03 Sep 6.5 20:43:09 10° W 20:44:24 11° WNW 20:45:39 10° NW visible
04 Sep 6.2 04:57:17 10° NE 04:59:11 13° ENE 05:01:04 10° E visible
04 Sep 6.3 20:24:51 10° W 20:26:56 14° WNW 20:29:01 10° NW visible
05 Sep 6.5 04:40:49 10° NE 04:41:42 11° ENE 04:42:34 10° E visible
05 Sep 6.1 20:06:52 10° WSW 20:09:28 18° WNW 20:12:04 10° NNW visible
06 Sep 5.8 19:49:02 10° WSW 19:52:01 22° WNW 19:55:00 10° NNW visible
07 Sep 2.9 05:39:15 10° N 05:42:59 74° E 05:46:41 10° SSE visible
